Location: Temple Hill
(37.3073°N, 88.6303°W)
Time: 16:04:52
(UTC+00:00)

H-2A R/B - Pass Details

Date: 23 November 2020
Orbit: 529 x 651 km, 98.3° (Epoch: 19 January)

Event Time Altitude Azimuth Distance (km) Brightness Sun altitude
Rises 22:59:46 0° 165° (SSE) 2,933 6.1 -4.5°
Reaches altitude 10° 23:01:59 10° 165° (SSE) 2,016 5.3 -5.0°
Maximum altitude 23:06:23 87° 78° (ENE) 629 2.6 -5.8°
Drops below altitude 10° 23:10:41 10° 348° (NNW) 1,965 5.1 -6.6°
Sets 23:12:50 0° 348° (NNW) 2,853 5.9 -7.0°
